Theta_e
282 282 282 282 282 281 281 283 285 285 288 288 288 288 288 288 289 289 289 289 289 289
281 282 281 281 281 281 282 284 285 285 287 287 288 288 288 288 288 289 289 290 290 290
282 281 281 281 281 281 282 284 284 285 287 287 288 288 288 288 289 289 289 290 290 290
281 281 281 281 281 282 283 285 285 285 286 287 287 288 287 287 288 288 288 289 289 289
281 281 280 280 281 282 284 285 285 285 285 286 286 286 286 285 286 286 286 287 287 287
280 279 279 280 281 282 282 283 284 285 284 284 285 285 286 286 285 285 286 286 286 287
279 279 278 280 280 283 281 283 283 284 282 282 282 283 285 285 285 286 286 287 287 287
277 277 279 279 280 283 281 282 282 281 280 280 280 282 284 286 286 284 283 284 284 285
271 273 280 278 280 282 281 281 282 279 278 278 280 283 286 287 284 281 280 280 280 281
269 274 280 280 281 281 282 281 282 277 277 276 277 283 286 286 282 279 278 278 279 279
268 273 280 280 281 281 281 281 280 275 276 273 275 283 286 286 278 280 280 280 280 280
269 274 278 280 280 281 280 280 279 274 273 270 271 281 284 284 280 278 277 279 281 280
270 276 279 279 277 280 280 280 280 275 270 269 269 279 283 283 280 274 276 277 280 281
271 273 276 274 273 279 279 279 277 269 268 268 269 272 282 283 281 280 278 279 278 279
Wind_Speed
5 3 3 4 4 4 4 4 6 6 7 8 9 8 8 7 7 9 8 11 10 9
4 5 4 5 4 4 5 5 5 5 8 8 9 10 9 7 9 9 9 10 11 10
5 4 3 3 5 5 5 5 5 7 8 9 9 9 9 8 9 10 9 8 11 11
5 4 3 3 4 5 4 6 7 7 8 9 9 8 8 9 11 11 11 11 11 11
4 3 2 3 5 5 6 7 7 7 8 8 9 9 9 10 10 11 12 12 12 14
5 3 3 4 5 4 5 6 6 7 7 8 9 10 10 10 11 11 12 12 13 13
5 5 4 4 5 4 5 6 5 6 6 8 9 10 10 9 10 11 9 10 11 12
4 4 5 4 5 5 5 5 5 5 6 7 7 6 9 11 7 6 8 9 10 10
5 5 4 5 5 5 5 5 4 4 5 7 6 15 18 10 5 6 6 8 8 9
6 6 5 6 5 5 4 3 4 4 5 6 6 15 17 12 4 5 5 7 8 9
6 6 6 7 6 6 3 3 2 4 5 5 6 14 16 13 4 5 6 7 8 10
8 7 7 9 8 6 3 3 3 4 5 4 6 13 15 12 5 6 6 7 8 10
9 9 11 10 6 5 3 4 4 4 4 5 5 11 13 12 3 5 6 6 8 13
9 10 8 6 4 4 3 6 6 3 4 4 3 5 12 13 6 7 6 6 7 7
Wind_Direction
210 216 235 246 254 255 255 257 260 269 274 273 275 274 272 270 265 263 258 257 256 259
211 218 240 268 270 266 266 272 269 282 288 283 278 274 273 268 267 263 265 262 259 258
209 217 242 271 276 279 276 276 289 294 292 289 283 277 274 271 269 268 266 266 268 265
211 220 248 266 277 280 295 299 293 289 292 293 291 287 285 283 281 276 277 274 277 280
207 220 270 290 288 292 294 292 291 294 297 298 294 291 287 284 283 280 280 281 280 279
209 218 255 272 285 290 284 284 289 297 299 300 297 292 284 276 277 278 276 275 275 278
201 206 226 251 269 270 278 283 286 298 305 304 299 296 292 291 282 275 280 289 288 286
187 190 225 257 268 273 279 276 282 307 302 294 299 297 308 290 288 305 302 306 302 294
177 195 211 252 259 261 271 280 289 308 300 311 323 313 310 333 322 312 301 304 302 298
184 196 202 232 244 252 258 272 297 306 308 304 305 302 328 350 336 306 308 304 307 312
186 202 200 225 240 252 240 278 310 296 289 295 298 318 338 354 320 311 304 306 314 314
183 199 206 229 236 244 228 262 280 264 283 286 289 331 337 344 341 319 306 315 321 321
184 199 213 224 215 223 210 256 263 274 270 278 295 327 333 342 337 321 331 322 325 328
189 202 202 208 202 206 228 260 268 283 288 285 279 327 336 344 344 336 334 326 331 335